Time,TemperatureF,DewpointF,PressureIn,WindDirection,WindDirectionDegrees,WindSpeedMPH,WindSpeedGustMPH,Humidity,HourlyPrecipIn,Conditions,Clouds,dailyrainin,SoftwareType,DateUTC
2013-03-01 00:00:00,33.4,32.4,29.59,NNE,14,3.0,8.0,96,0.00,,,0.03,Wunderground v.1.15,2013-03-01 05:00:00,
2013-03-01 00:10:00,33.4,32.4,29.59,NNE,30,4.0,8.0,96,0.00,,,0.00,Wunderground v.1.15,2013-03-01 05:10:00,
2013-03-01 00:15:00,33.4,32.1,29.59,NNE,14,5.0,8.0,95,0.00,,,0.00,Wunderground v.1.15,2013-03-01 05:15:00,
2013-03-01 00:20:00,33.4,32.1,29.59,NNE,20,4.0,4.0,95,0.00,,,0.00,Wunderground v.1.15,2013-03-01 05:20:00,
2013-03-01 00:30:00,33.3,32.0,29.60,North,5,3.0,3.0,95,0.00,,,0.00,Wunderground v.1.15,2013-03-01 05:30:00,
2013-03-01 00:35:00,33.3,32.0,29.60,NNE,17,3.0,4.0,95,0.00,,,0.00,Wunderground v.1.15,2013-03-01 05:35:00,
2013-03-01 00:40:00,33.3,32.0,29.60,NNE,33,4.0,4.0,95,0.00,,,0.00,Wunderground v.1.15,2013-03-01 05:40:00,
2013-03-01 00:45:00,33.3,32.0,29.60,NNE,22,3.0,8.0,95,0.00,,,0.00,Wunderground v.1.15,2013-03-01 05:45:00,
2013-03-01 00:50:00,33.3,32.0,29.60,North,9,3.0,8.0,95,0.00,,,0.00,Wunderground v.1.15,2013-03-01 05:50:00,
2013-03-01 00:55:00,33.3,31.8,29.60,NE,56,4.0,8.0,94,0.00,,,0.00,Wunderground v.1.15,2013-03-01 05:55:00,
2013-03-01 01:05:00,33.3,31.8,29.60,North,355,2.0,8.0,94,0.00,,,0.00,Wunderground v.1.15,2013-03-01 06:05:00,
2013-03-01 01:10:00,33.2,31.9,29.60,NNE,18,1.0,8.0,95,0.00,,,0.00,Wunderground v.1.15,2013-03-01 06:10:00,
2013-03-01 01:15:00,33.2,31.9,29.60,NE,34,1.0,8.0,95,0.00,,,0.00,Wunderground v.1.15,2013-03-01 06:15:00,
2013-03-01 01:20:00,33.1,31.8,29.60,North,5,2.0,2.0,95,0.00,,,0.00,Wunderground v.1.15,2013-03-01 06:20:00,
2013-03-01 01:25:00,33.1,31.6,29.60,North,5,2.0,8.0,94,0.00,,,0.00,Wunderground v.1.15,2013-03-01 06:25:00,
2013-03-01 01:30:00,33.1,31.8,29.60,NE,51,2.0,2.0,95,0.00,,,0.00,Wunderground v.1.15,2013-03-01 06:30:00,
2013-03-01 01:35:00,33.2,31.7,29.60,NE,34,2.0,8.0,94,0.00,,,0.00,Wunderground v.1.15,2013-03-01 06:35:00,
2013-03-01 01:45:00,33.2,31.7,29.60,NE,40,3.0,8.0,94,0.00,,,0.00,Wunderground v.1.15,2013-03-01 06:45:00,
2013-03-01 01:55:00,33.1,31.6,29.59,NNE,17,3.0,8.0,94,0.00,,,0.00,Wunderground v.1.15,2013-03-01 06:55:00,
2013-03-01 02:00:00,33.1,31.6,29.59,ENE,70,3.0,8.0,94,0.00,,,0.00,Wunderground v.1.15,2013-03-01 07:00:00,
2013-03-01 02:05:00,33.0,31.5,29.59,NNE,30,3.0,8.0,94,0.00,,,0.00,Wunderground v.1.15,2013-03-01 07:05:00,
2013-03-01 02:10:00,33.0,31.7,29.59,ENE,65,3.0,8.0,95,0.00,,,0.00,Wunderground v.1.15,2013-03-01 07:10:00,
2013-03-01 02:15:00,33.1,31.6,29.59,NE,36,3.0,8.0,94,0.00,,,0.00,Wunderground v.1.15,2013-03-01 07:15:00,
2013-03-01 02:20:00,33.1,31.6,29.59,North,5,3.0,8.0,94,0.00,,,0.00,Wunderground v.1.15,2013-03-01 07:20:00,
2013-03-01 02:25:00,33.1,31.6,29.59,NE,40,2.0,8.0,94,0.00,,,0.00,Wunderground v.1.15,2013-03-01 07:25:00,
2013-03-01 02:35:00,33.1,31.8,29.59,NNE,20,2.0,8.0,95,0.00,,,0.00,Wunderground v.1.15,2013-03-01 07:35:00,
2013-03-01 02:40:00,33.1,31.8,29.59,NNW,345,2.0,2.0,95,0.00,,,0.01,Wunderground v.1.15,2013-03-01 07:40:00,
2013-03-01 02:45:00,33.0,31.7,29.59,NE,43,3.0,9.0,95,0.00,,,0.01,Wunderground v.1.15,2013-03-01 07:45:00,
2013-03-01 02:50:00,33.1,31.8,29.59,North,360,4.0,4.0,95,0.00,,,0.01,Wunderground v.1.15,2013-03-01 07:50:00,
2013-03-01 02:55:00,33.1,31.8,29.59,NNE,19,4.0,5.0,95,0.00,,,0.01,Wunderground v.1.15,2013-03-01 07:55:00,
2013-03-01 03:00:00,33.0,31.7,29.59,NE,34,4.0,4.0,95,0.00,,,0.01,Wunderground v.1.15,2013-03-01 08:00:00,
2013-03-01 03:05:00,33.0,31.7,29.59,NNE,19,3.0,7.0,95,0.00,,,0.01,Wunderground v.1.15,2013-03-01 08:05:00,
2013-03-01 03:10:00,33.0,31.7,29.59,NE,42,4.0,4.0,95,0.00,,,0.01,Wunderground v.1.15,2013-03-01 08:10:00,
2013-03-01 03:20:00,33.0,31.7,29.59,North,351,4.0,4.0,95,0.00,,,0.01,Wunderground v.1.15,2013-03-01 08:20:00,
2013-03-01 03:25:00,33.0,31.7,29.59,NE,46,4.0,8.0,95,0.00,,,0.01,Wunderground v.1.15,2013-03-01 08:25:00,
2013-03-01 03:30:00,32.9,31.6,29.59,NE,34,4.0,4.0,95,0.00,,,0.01,Wunderground v.1.15,2013-03-01 08:30:00,
2013-03-01 03:35:00,33.0,31.7,29.59,West,268,3.0,8.0,95,0.00,,,0.01,Wunderground v.1.15,2013-03-01 08:35:00,
2013-03-01 03:40:00,32.9,31.6,29.59,North,5,3.0,3.0,95,0.00,,,0.01,Wunderground v.1.15,2013-03-01 08:40:00,
2013-03-01 03:45:00,32.9,31.6,29.60,North,355,2.0,8.0,95,0.00,,,0.01,Wunderground v.1.15,2013-03-01 08:45:00,
2013-03-01 03:50:00,32.9,31.6,29.60,North,5,2.0,8.0,95,0.00,,,0.01,Wunderground v.1.15,2013-03-01 08:50:00,
2013-03-01 04:00:00,32.9,31.6,29.60,East,98,3.0,8.0,95,0.00,,,0.01,Wunderground v.1.15,2013-03-01 09:00:00,
2013-03-01 04:05:00,32.9,31.6,29.61,NNE,28,4.0,8.0,95,0.00,,,0.01,Wunderground v.1.15,2013-03-01 09:05:00,
2013-03-01 04:15:00,32.8,31.5,29.61,NNE,25,3.0,6.0,95,0.00,,,0.01,Wunderground v.1.15,2013-03-01 09:15:00,
2013-03-01 04:20:00,32.7,31.7,29.62,NNE,19,4.0,4.0,96,0.00,,,0.01,Wunderground v.1.15,2013-03-01 09:20:00,
2013-03-01 04:25:00,32.7,31.7,29.62,NNE,21,3.0,8.0,96,0.00,,,0.01,Wunderground v.1.15,2013-03-01 09:25:00,
2013-03-01 04:35:00,32.7,31.7,29.62,NNE,30,4.0,8.0,96,0.00,,,0.01,Wunderground v.1.15,2013-03-01 09:35:00,
2013-03-01 04:40:00,32.7,31.4,29.62,NE,44,4.0,4.0,95,0.00,,,0.01,Wunderground v.1.15,2013-03-01 09:40:00,
2013-03-01 04:45:00,32.7,31.4,29.63,NE,40,4.0,8.0,95,0.00,,,0.01,Wunderground v.1.15,2013-03-01 09:45:00,
2013-03-01 04:50:00,32.7,31.4,29.63,NE,46,3.0,3.0,95,0.00,,,0.01,Wunderground v.1.15,2013-03-01 09:50:00,
2013-03-01 04:55:00,32.7,31.4,29.63,North,360,3.0,8.0,95,0.00,,,0.01,Wunderground v.1.15,2013-03-01 09:55:00,
2013-03-01 05:00:00,32.6,31.3,29.63,NE,46,3.0,8.0,95,0.00,,,0.01,Wunderground v.1.15,2013-03-01 10:00:00,
2013-03-01 05:05:00,32.6,31.3,29.63,NE,42,4.0,8.0,95,0.00,,,0.01,Wunderground v.1.15,2013-03-01 10:05:00,
2013-03-01 05:15:00,32.6,31.3,29.64,NE,50,2.0,8.0,95,0.00,,,0.01,Wunderground v.1.15,2013-03-01 10:15:00,
2013-03-01 05:25:00,32.6,31.1,29.63,NE,34,2.0,8.0,94,0.00,,,0.01,Wunderground v.1.15,2013-03-01 10:25:00,
2013-03-01 05:30:00,32.6,31.1,29.64,NNE,27,3.0,3.0,94,0.00,,,0.01,Wunderground v.1.15,2013-03-01 10:30:00,
2013-03-01 05:35:00,32.6,31.1,29.64,NNE,22,3.0,8.0,94,0.00,,,0.01,Wunderground v.1.15,2013-03-01 10:35:00,
2013-03-01 05:40:00,32.6,31.1,29.64,ENE,59,3.0,8.0,94,0.00,,,0.01,Wunderground v.1.15,2013-03-01 10:40:00,
2013-03-01 05:45:00,32.6,31.1,29.64,NE,45,3.0,8.0,94,0.00,,,0.01,Wunderground v.1.15,2013-03-01 10:45:00,
2013-03-01 05:50:00,32.6,31.1,29.64,ENE,63,3.0,3.0,94,0.00,,,0.01,Wunderground v.1.15,2013-03-01 10:50:00,
2013-03-01 05:55:00,32.6,30.8,29.64,NNE,15,2.0,8.0,93,0.00,,,0.01,Wunderground v.1.15,2013-03-01 10:55:00,
2013-03-01 06:00:00,32.6,30.8,29.64,East,82,2.0,2.0,93,0.00,,,0.01,Wunderground v.1.15,2013-03-01 11:00:00,
2013-03-01 06:10:00,32.6,30.5,29.64,ENE,64,3.0,3.0,92,0.00,,,0.01,Wunderground v.1.15,2013-03-01 11:10:00,
2013-03-01 06:15:00,32.7,30.6,29.64,North,5,3.0,8.0,92,0.00,,,0.01,Wunderground v.1.15,2013-03-01 11:15:00,
2013-03-01 06:20:00,32.7,30.6,29.65,North,5,2.0,2.0,92,0.00,,,0.01,Wunderground v.1.15,2013-03-01 11:20:00,
2013-03-01 06:25:00,32.7,30.6,29.65,ENE,59,1.0,3.0,92,0.00,,,0.01,Wunderground v.1.15,2013-03-01 11:25:00,
2013-03-01 06:30:00,32.7,30.6,29.65,NE,51,2.0,8.0,92,0.00,,,0.01,Wunderground v.1.15,2013-03-01 11:30:00,
2013-03-01 06:35:00,32.7,30.6,29.65,NNE,26,3.0,8.0,92,0.00,,,0.01,Wunderground v.1.15,2013-03-01 11:35:00,
2013-03-01 06:40:00,32.7,30.4,29.65,NE,42,3.0,8.0,91,0.00,,,0.01,Wunderground v.1.15,2013-03-01 11:40:00,
2013-03-01 06:45:00,32.7,30.4,29.65,NNE,22,3.0,8.0,91,0.00,,,0.01,Wunderground v.1.15,2013-03-01 11:45:00,
2013-03-01 06:55:00,32.8,30.2,29.65,NNE,33,3.0,8.0,90,0.00,,,0.01,Wunderground v.1.15,2013-03-01 11:55:00,
2013-03-01 07:00:00,32.7,30.1,29.65,NE,38,2.0,8.0,90,0.00,,,0.01,Wunderground v.1.15,2013-03-01 12:00:00,
2013-03-01 07:05:00,32.8,29.9,29.65,North,355,3.0,8.0,89,0.00,,,0.01,Wunderground v.1.15,2013-03-01 12:05:00,
2013-03-01 07:10:00,32.8,29.9,29.65,NNE,23,3.0,8.0,89,0.00,,,0.01,Wunderground v.1.15,2013-03-01 12:10:00,
2013-03-01 07:15:00,32.9,29.7,29.65,NNE,22,4.0,8.0,88,0.00,,,0.01,Wunderground v.1.15,2013-03-01 12:15:00,
2013-03-01 07:20:00,32.9,29.5,29.66,North,5,4.0,4.0,87,0.00,,,0.01,Wunderground v.1.15,2013-03-01 12:20:00,
2013-03-01 07:25:00,33.0,29.6,29.66,NNE,26,4.0,8.0,87,0.00,,,0.01,Wunderground v.1.15,2013-03-01 12:25:00,
2013-03-01 07:35:00,33.0,29.6,29.66,NNE,26,4.0,8.0,87,0.00,,,0.01,Wunderground v.1.15,2013-03-01 12:35:00,
2013-03-01 07:45:00,33.0,29.6,29.66,ENE,65,4.0,9.0,87,0.00,,,0.01,Wunderground v.1.15,2013-03-01 12:45:00,
2013-03-01 07:50:00,33.2,29.8,29.66,NNE,18,4.0,4.0,87,0.00,,,0.01,Wunderground v.1.15,2013-03-01 12:50:00,
2013-03-01 07:55:00,33.3,30.1,29.67,NE,47,3.0,8.0,88,0.00,,,0.01,Wunderground v.1.15,2013-03-01 12:55:00,
2013-03-01 08:00:00,33.3,29.8,29.67,North,5,3.0,8.0,87,0.00,,,0.01,Wunderground v.1.15,2013-03-01 13:00:00,
2013-03-01 08:05:00,33.4,29.9,29.67,NNE,33,4.0,8.0,87,0.00,,,0.01,Wunderground v.1.15,2013-03-01 13:05:00,
2013-03-01 08:15:00,33.5,30.0,29.67,NNE,30,2.0,8.0,87,0.00,,,0.01,Wunderground v.1.15,2013-03-01 13:15:00,
2013-03-01 08:20:00,33.5,29.8,29.67,NE,51,2.0,8.0,86,0.00,,,0.01,Wunderground v.1.15,2013-03-01 13:20:00,
2013-03-01 08:30:00,33.7,30.0,29.67,ENE,67,3.0,3.0,86,0.00,,,0.01,Wunderground v.1.15,2013-03-01 13:30:00,
2013-03-01 08:35:00,34.1,30.4,29.66,NNE,19,2.0,8.0,86,0.00,,,0.01,Wunderground v.1.15,2013-03-01 13:35:00,
2013-03-01 08:40:00,34.7,30.7,29.66,NE,51,2.0,2.0,85,0.00,,,0.01,Wunderground v.1.15,2013-03-01 13:40:00,
2013-03-01 08:45:00,35.0,30.4,29.66,NE,35,4.0,4.0,83,0.00,,,0.01,Wunderground v.1.15,2013-03-01 13:45:00,
2013-03-01 08:50:00,35.5,30.5,29.66,NNE,30,4.0,9.0,82,0.00,,,0.01,Wunderground v.1.15,2013-03-01 13:50:00,
2013-03-01 08:55:00,35.5,30.2,29.66,NNE,19,5.0,9.0,81,0.00,,,0.01,Wunderground v.1.15,2013-03-01 13:55:00,
2013-03-01 09:00:00,35.6,30.0,29.67,NE,52,7.0,10.0,80,0.00,,,0.01,Wunderground v.1.15,2013-03-01 14:00:00,
2013-03-01 09:05:00,35.5,30.2,29.67,NE,49,7.0,10.0,81,0.00,,,0.01,Wunderground v.1.15,2013-03-01 14:05:00,
2013-03-01 09:15:00,35.9,30.3,29.67,ENE,69,7.0,8.0,80,0.00,,,0.01,Wunderground v.1.15,2013-03-01 14:15:00,
2013-03-01 09:20:00,36.1,30.8,29.67,NNE,23,7.0,7.0,81,0.00,,,0.01,Wunderground v.1.15,2013-03-01 14:20:00,
2013-03-01 09:25:00,36.3,31.0,29.67,NNE,29,6.0,8.0,81,0.00,,,0.01,Wunderground v.1.15,2013-03-01 14:25:00,
2013-03-01 09:30:00,36.1,30.8,29.67,NNE,23,4.0,4.0,81,0.00,,,0.01,Wunderground v.1.15,2013-03-01 14:30:00,
2013-03-01 09:35:00,36.2,30.9,29.68,East,87,3.0,5.0,81,0.00,,,0.01,Wunderground v.1.15,2013-03-01 14:35:00,
2013-03-01 09:40:00,36.0,31.0,29.68,NE,41,3.0,3.0,82,0.00,,,0.01,Wunderground v.1.15,2013-03-01 14:40:00,
2013-03-01 09:50:00,35.6,30.6,29.68,NW,326,3.0,8.0,82,0.00,,,0.01,Wunderground v.1.15,2013-03-01 14:50:00,
2013-03-01 10:00:00,35.8,30.2,29.68,North,5,3.0,3.0,80,0.00,,,0.01,Wunderground v.1.15,2013-03-01 15:00:00,
2013-03-01 10:05:00,35.7,30.4,29.68,NE,43,3.0,4.0,81,0.00,,,0.01,Wunderground v.1.15,2013-03-01 15:05:00,
2013-03-01 10:10:00,35.7,30.4,29.68,NE,49,3.0,3.0,81,0.00,,,0.01,Wunderground v.1.15,2013-03-01 15:10:00,
2013-03-01 10:15:00,35.7,30.1,29.68,ENE,60,4.0,5.0,80,0.00,,,0.01,Wunderground v.1.15,2013-03-01 15:15:00,
2013-03-01 10:20:00,36.1,30.8,29.68,NNW,327,5.0,5.0,81,0.00,,,0.01,Wunderground v.1.15,2013-03-01 15:20:00,
2013-03-01 10:25:00,36.9,31.6,29.68,NE,36,4.0,8.0,81,0.00,,,0.01,Wunderground v.1.15,2013-03-01 15:25:00,
2013-03-01 10:30:00,36.9,30.7,29.68,NE,36,5.0,8.0,78,0.00,,,0.01,Wunderground v.1.15,2013-03-01 15:30:00,
2013-03-01 10:35:00,36.9,31.3,29.68,NNE,28,5.0,8.0,80,0.00,,,0.01,Wunderground v.1.15,2013-03-01 15:35:00,
2013-03-01 10:40:00,37.5,31.6,29.68,ENE,67,5.0,5.0,79,0.00,,,0.01,Wunderground v.1.15,2013-03-01 15:40:00,
2013-03-01 10:50:00,38.2,31.3,29.68,NNE,24,4.0,8.0,76,0.00,,,0.01,Wunderground v.1.15,2013-03-01 15:50:00,
2013-03-01 10:55:00,38.4,31.5,29.68,NE,51,5.0,8.0,76,0.00,,,0.01,Wunderground v.1.15,2013-03-01 15:55:00,
2013-03-01 11:05:00,37.7,31.8,29.68,North,360,6.0,6.0,79,0.00,,,0.01,Wunderground v.1.15,2013-03-01 16:05:00,
2013-03-01 11:10:00,38.3,32.0,29.68,NE,55,5.0,8.0,78,0.00,,,0.01,Wunderground v.1.15,2013-03-01 16:10:00,
2013-03-01 11:15:00,38.0,31.1,29.68,NNE,31,5.0,8.0,76,0.00,,,0.01,Wunderground v.1.15,2013-03-01 16:15:00,
2013-03-01 11:20:00,38.4,32.5,29.69,North,5,4.0,4.0,79,0.00,,,0.01,Wunderground v.1.15,2013-03-01 16:20:00,
2013-03-01 11:25:00,38.4,31.5,29.69,NE,34,3.0,8.0,76,0.00,,,0.01,Wunderground v.1.15,2013-03-01 16:25:00,
2013-03-01 11:36:00,38.9,32.3,29.69,ENE,68,4.0,4.0,77,0.00,,,0.01,Wunderground v.1.15,2013-03-01 16:36:00,
2013-03-01 11:45:00,39.0,31.7,29.69,NE,40,5.0,8.0,75,0.00,,,0.01,Wunderground v.1.15,2013-03-01 16:45:00,
2013-03-01 11:50:00,38.5,31.3,29.68,NE,40,6.0,8.0,75,0.00,,,0.01,Wunderground v.1.15,2013-03-01 16:50:00,
2013-03-01 11:55:00,38.4,31.2,29.68,East,86,6.0,9.0,75,0.00,,,0.01,Wunderground v.1.15,2013-03-01 16:55:00,
2013-03-01 12:05:00,38.8,31.6,29.68,ENE,57,5.0,8.0,75,0.00,,,0.01,Wunderground v.1.15,2013-03-01 17:05:00,
2013-03-01 12:10:00,38.9,31.0,29.68,East,93,5.0,10.0,73,0.00,,,0.01,Wunderground v.1.15,2013-03-01 17:10:00,
2013-03-01 12:15:00,38.2,30.0,29.68,NE,49,5.0,10.0,72,0.00,,,0.01,Wunderground v.1.15,2013-03-01 17:15:00,
2013-03-01 12:20:00,38.4,30.8,29.68,NNE,22,5.0,5.0,74,0.00,,,0.01,Wunderground v.1.15,2013-03-01 17:20:00,
2013-03-01 12:25:00,39.0,30.7,29.68,North,5,3.0,8.0,72,0.00,,,0.01,Wunderground v.1.15,2013-03-01 17:25:00,
2013-03-01 12:35:00,39.8,31.5,29.67,NNE,30,3.0,4.0,72,0.00,,,0.01,Wunderground v.1.15,2013-03-01 17:35:00,
2013-03-01 12:40:00,39.9,30.9,29.67,NE,44,4.0,4.0,70,0.00,,,0.01,Wunderground v.1.15,2013-03-01 17:40:00,
2013-03-01 12:45:00,39.4,30.1,29.68,ENE,66,4.0,7.0,69,0.00,,,0.01,Wunderground v.1.15,2013-03-01 17:45:00,
2013-03-01 12:50:00,39.0,30.4,29.67,North,9,4.0,4.0,71,0.00,,,0.01,Wunderground v.1.15,2013-03-01 17:50:00,
2013-03-01 12:55:00,38.8,30.2,29.67,ENE,59,3.0,8.0,71,0.00,,,0.01,Wunderground v.1.15,2013-03-01 17:55:00,
2013-03-01 13:00:00,38.6,30.0,29.67,NE,49,3.0,3.0,71,0.00,,,0.01,Wunderground v.1.15,2013-03-01 18:00:00,
2013-03-01 13:05:00,38.8,29.8,29.67,ENE,76,3.0,9.0,70,0.00,,,0.01,Wunderground v.1.15,2013-03-01 18:05:00,
2013-03-01 13:15:00,38.2,29.3,29.67,NNE,25,5.0,5.0,70,0.00,,,0.01,Wunderground v.1.15,2013-03-01 18:15:00,
2013-03-01 13:20:00,37.9,29.3,29.67,ENE,57,5.0,5.0,71,0.00,,,0.01,Wunderground v.1.15,2013-03-01 18:20:00,
2013-03-01 13:25:00,37.7,29.1,29.67,NE,55,5.0,7.0,71,0.00,,,0.01,Wunderground v.1.15,2013-03-01 18:25:00,
2013-03-01 13:30:00,37.3,29.1,29.68,North,5,4.0,4.0,72,0.00,,,0.01,Wunderground v.1.15,2013-03-01 18:30:00,
2013-03-01 13:35:00,37.2,29.0,29.68,South,175,3.0,8.0,72,0.00,,,0.01,Wunderground v.1.15,2013-03-01 18:35:00,
2013-03-01 13:40:00,37.2,29.0,29.68,NNE,29,3.0,3.0,72,0.00,,,0.01,Wunderground v.1.15,2013-03-01 18:40:00,
2013-03-01 13:45:00,37.2,29.3,29.68,NNE,21,3.0,8.0,73,0.00,,,0.01,Wunderground v.1.15,2013-03-01 18:45:00,
2013-03-01 13:50:00,37.1,29.6,29.68,NE,51,3.0,3.0,74,0.00,,,0.01,Wunderground v.1.15,2013-03-01 18:50:00,
2013-03-01 13:55:00,36.9,29.4,29.67,NE,37,3.0,8.0,74,0.00,,,0.01,Wunderground v.1.15,2013-03-01 18:55:00,
2013-03-01 14:05:00,36.9,29.7,29.68,NE,43,2.0,8.0,75,0.00,,,0.01,Wunderground v.1.15,2013-03-01 19:05:00,
2013-03-01 14:10:00,37.0,29.8,29.68,NE,43,3.0,8.0,75,0.00,,,0.01,Wunderground v.1.15,2013-03-01 19:10:00,
2013-03-01 14:20:00,37.4,30.2,29.68,NE,34,2.0,8.0,75,0.00,,,0.01,Wunderground v.1.15,2013-03-01 19:20:00,
2013-03-01 14:25:00,37.1,29.9,29.68,NE,39,5.0,8.0,75,0.00,,,0.01,Wunderground v.1.15,2013-03-01 19:25:00,
2013-03-01 14:30:00,36.8,29.6,29.68,ENE,59,5.0,5.0,75,0.00,,,0.01,Wunderground v.1.15,2013-03-01 19:30:00,
2013-03-01 14:35:00,36.5,29.7,29.68,NE,53,3.0,8.0,76,0.00,,,0.01,Wunderground v.1.15,2013-03-01 19:35:00,
2013-03-01 14:40:00,36.4,29.9,29.68,ENE,69,3.0,3.0,77,0.00,,,0.01,Wunderground v.1.15,2013-03-01 19:40:00,
2013-03-01 14:45:00,36.2,29.7,29.68,NE,37,2.0,5.0,77,0.00,,,0.01,Wunderground v.1.15,2013-03-01 19:45:00,
2013-03-01 14:50:00,36.1,29.9,29.68,NE,48,3.0,3.0,78,0.00,,,0.01,Wunderground v.1.15,2013-03-01 19:50:00,
2013-03-01 15:00:00,36.1,29.9,29.68,NNE,15,2.0,2.0,78,0.00,,,0.01,Wunderground v.1.15,2013-03-01 20:00:00,
2013-03-01 15:05:00,36.3,30.1,29.68,NE,55,1.0,8.0,78,0.00,,,0.01,Wunderground v.1.15,2013-03-01 20:05:00,
2013-03-01 15:10:00,36.4,30.2,29.68,NE,49,0.0,8.0,78,0.00,,,0.01,Wunderground v.1.15,2013-03-01 20:10:00,
2013-03-01 15:15:00,36.5,30.3,29.68,ENE,59,1.0,8.0,78,0.00,,,0.01,Wunderground v.1.15,2013-03-01 20:15:00,
2013-03-01 15:20:00,36.4,30.2,29.68,North,5,2.0,2.0,78,0.00,,,0.01,Wunderground v.1.15,2013-03-01 20:20:00,
2013-03-01 15:25:00,36.3,29.8,29.68,NNE,30,3.0,4.0,77,0.00,,,0.01,Wunderground v.1.15,2013-03-01 20:25:00,
2013-03-01 15:30:00,36.4,30.2,29.68,ENE,78,3.0,3.0,78,0.00,,,0.01,Wunderground v.1.15,2013-03-01 20:30:00,
2013-03-01 15:35:00,36.4,30.2,29.68,NNE,28,3.0,8.0,78,0.00,,,0.01,Wunderground v.1.15,2013-03-01 20:35:00,
2013-03-01 15:45:00,36.3,30.1,29.68,NE,54,2.0,8.0,78,0.00,,,0.01,Wunderground v.1.15,2013-03-01 20:45:00,
2013-03-01 15:50:00,36.2,30.3,29.68,ENE,71,2.0,8.0,79,0.00,,,0.01,Wunderground v.1.15,2013-03-01 20:50:00,
2013-03-01 15:55:00,36.1,30.2,29.69,NE,44,3.0,8.0,79,0.00,,,0.01,Wunderground v.1.15,2013-03-01 20:55:00,
2013-03-01 16:00:00,36.0,30.4,29.69,NNE,28,3.0,8.0,80,0.00,,,0.01,Wunderground v.1.15,2013-03-01 21:00:00,
2013-03-01 16:05:00,35.7,30.4,29.69,NE,55,4.0,8.0,81,0.00,,,0.01,Wunderground v.1.15,2013-03-01 21:05:00,
2013-03-01 16:15:00,34.9,30.8,29.69,NNE,23,3.0,8.0,85,0.00,,,0.01,Wunderground v.1.15,2013-03-01 21:15:00,
2013-03-01 16:25:00,34.7,30.9,29.70,NE,35,2.0,8.0,86,0.00,,,0.01,Wunderground v.1.15,2013-03-01 21:25:00,
2013-03-01 16:30:00,34.6,30.8,29.70,NE,37,2.0,8.0,86,0.00,,,0.01,Wunderground v.1.15,2013-03-01 21:30:00,
2013-03-01 16:35:00,34.5,30.7,29.70,NE,39,2.0,8.0,86,0.00,,,0.01,Wunderground v.1.15,2013-03-01 21:35:00,
2013-03-01 16:40:00,34.4,30.6,29.70,North,5,2.0,8.0,86,0.00,,,0.01,Wunderground v.1.15,2013-03-01 21:40:00,
2013-03-01 16:45:00,34.4,30.6,29.70,NNE,23,3.0,8.0,86,0.00,,,0.01,Wunderground v.1.15,2013-03-01 21:45:00,
2013-03-01 16:50:00,34.3,30.8,29.70,NNE,27,2.0,8.0,87,0.00,,,0.01,Wunderground v.1.15,2013-03-01 21:50:00,
2013-03-01 16:55:00,34.3,30.8,29.70,NE,54,2.0,8.0,87,0.00,,,0.01,Wunderground v.1.15,2013-03-01 21:55:00,
2013-03-01 17:05:00,34.3,30.8,29.70,NE,55,2.0,8.0,87,0.00,,,0.01,Wunderground v.1.15,2013-03-01 22:05:00,
2013-03-01 17:10:00,34.3,30.5,29.70,ENE,73,3.0,3.0,86,0.00,,,0.01,Wunderground v.1.15,2013-03-01 22:10:00,
2013-03-01 17:15:00,34.3,30.5,29.70,NE,44,3.0,8.0,86,0.00,,,0.01,Wunderground v.1.15,2013-03-01 22:15:00,
2013-03-01 17:20:00,34.3,30.5,29.70,North,5,3.0,10.0,86,0.00,,,0.01,Wunderground v.1.15,2013-03-01 22:20:00,
2013-03-01 17:25:00,34.3,30.5,29.71,ENE,60,4.0,10.0,86,0.00,,,0.01,Wunderground v.1.15,2013-03-01 22:25:00,
2013-03-01 17:30:00,34.3,30.5,29.71,NE,52,2.0,2.0,86,0.00,,,0.01,Wunderground v.1.15,2013-03-01 22:30:00,
2013-03-01 17:35:00,34.3,30.5,29.71,NNE,16,1.0,8.0,86,0.00,,,0.01,Wunderground v.1.15,2013-03-01 22:35:00,
2013-03-01 17:40:00,34.2,30.4,29.72,NE,35,1.0,8.0,86,0.00,,,0.01,Wunderground v.1.15,2013-03-01 22:40:00,
2013-03-01 17:50:00,34.1,30.6,29.72,NE,55,3.0,3.0,87,0.00,,,0.01,Wunderground v.1.15,2013-03-01 22:50:00,
2013-03-01 17:55:00,34.1,30.6,29.72,ENE,76,3.0,9.0,87,0.00,,,0.01,Wunderground v.1.15,2013-03-01 22:55:00,
2013-03-01 18:05:00,33.9,30.4,29.72,North,5,2.0,8.0,87,0.00,,,0.01,Wunderground v.1.15,2013-03-01 23:05:00,
2013-03-01 18:10:00,33.9,30.4,29.72,NNE,33,2.0,2.0,87,0.00,,,0.01,Wunderground v.1.15,2013-03-01 23:10:00,
2013-03-01 18:15:00,33.9,30.4,29.72,NNE,23,2.0,8.0,87,0.00,,,0.01,Wunderground v.1.15,2013-03-01 23:15:00,
2013-03-01 18:20:00,33.8,30.3,29.72,ENE,67,2.0,2.0,87,0.00,,,0.01,Wunderground v.1.15,2013-03-01 23:20:00,
2013-03-01 18:30:00,33.8,30.3,29.73,NE,40,3.0,3.0,87,0.00,,,0.01,Wunderground v.1.15,2013-03-01 23:30:00,
2013-03-01 18:35:00,33.7,30.2,29.73,East,84,3.0,8.0,87,0.00,,,0.01,Wunderground v.1.15,2013-03-01 23:35:00,
2013-03-01 18:45:00,33.6,30.1,29.73,NNE,27,3.0,8.0,87,0.00,,,0.01,Wunderground v.1.15,2013-03-01 23:45:00,
2013-03-01 18:50:00,33.6,30.1,29.73,NNE,30,4.0,4.0,87,0.00,,,0.01,Wunderground v.1.15,2013-03-01 23:50:00,
2013-03-01 18:55:00,33.6,30.1,29.73,NE,45,3.0,8.0,87,0.00,,,0.01,Wunderground v.1.15,2013-03-01 23:55:00,
2013-03-01 19:00:00,33.5,30.0,29.74,North,350,2.0,2.0,87,0.00,,,0.01,Wunderground v.1.15,2013-03-02 00:00:00,
2013-03-01 19:05:00,33.5,30.0,29.74,NNE,23,3.0,4.0,87,0.00,,,0.01,Wunderground v.1.15,2013-03-02 00:05:00,
2013-03-01 19:10:00,33.5,30.0,29.74,NNE,26,3.0,3.0,87,0.00,,,0.01,Wunderground v.1.15,2013-03-02 00:10:00,
2013-03-01 19:15:00,33.5,30.0,29.74,NNE,22,4.0,4.0,87,0.00,,,0.01,Wunderground v.1.15,2013-03-02 00:15:00,
2013-03-01 19:20:00,33.4,29.9,29.74,NNE,16,4.0,4.0,87,0.00,,,0.01,Wunderground v.1.15,2013-03-02 00:20:00,
2013-03-01 19:30:00,33.3,29.8,29.74,NE,38,3.0,3.0,87,0.00,,,0.01,Wunderground v.1.15,2013-03-02 00:30:00,
2013-03-01 19:35:00,33.2,29.8,29.74,NNE,29,3.0,5.0,87,0.00,,,0.01,Wunderground v.1.15,2013-03-02 00:35:00,
2013-03-01 19:40:00,33.2,29.8,29.74,ENE,71,3.0,8.0,87,0.00,,,0.01,Wunderground v.1.15,2013-03-02 00:40:00,
2013-03-01 19:45:00,33.1,29.9,29.74,North,5,2.0,8.0,88,0.00,,,0.01,Wunderground v.1.15,2013-03-02 00:45:00,
2013-03-01 19:50:00,33.1,29.9,29.74,NNE,27,2.0,8.0,88,0.00,,,0.01,Wunderground v.1.15,2013-03-02 00:50:00,
2013-03-01 19:55:00,33.0,29.8,29.74,NE,55,2.0,8.0,88,0.00,,,0.01,Wunderground v.1.15,2013-03-02 00:55:00,
2013-03-01 20:00:00,33.0,29.8,29.74,NNE,14,3.0,3.0,88,0.00,,,0.01,Wunderground v.1.15,2013-03-02 01:00:00,
2013-03-01 20:05:00,32.9,29.7,29.75,NNE,22,3.0,7.0,88,0.00,,,0.01,Wunderground v.1.15,2013-03-02 01:05:00,
2013-03-01 20:15:00,32.8,29.6,29.75,NE,49,4.0,8.0,88,0.00,,,0.01,Wunderground v.1.15,2013-03-02 01:15:00,
2013-03-01 20:20:00,32.8,29.6,29.75,NNE,23,3.0,3.0,88,0.00,,,0.01,Wunderground v.1.15,2013-03-02 01:20:00,
2013-03-01 20:25:00,32.7,29.5,29.74,North,355,2.0,8.0,88,0.00,,,0.01,Wunderground v.1.15,2013-03-02 01:25:00,
2013-03-01 20:30:00,32.6,29.7,29.74,NE,46,3.0,8.0,89,0.00,,,0.01,Wunderground v.1.15,2013-03-02 01:30:00,
2013-03-01 20:35:00,32.4,29.5,29.74,NNE,25,4.0,8.0,89,0.00,,,0.01,Wunderground v.1.15,2013-03-02 01:35:00,
2013-03-01 20:40:00,32.3,29.7,29.74,NE,45,3.0,3.0,90,0.00,,,0.01,Wunderground v.1.15,2013-03-02 01:40:00,
2013-03-01 20:45:00,32.1,29.5,29.74,ENE,64,3.0,5.0,90,0.00,,,0.01,Wunderground v.1.15,2013-03-02 01:45:00,
2013-03-01 20:50:00,31.9,29.0,29.75,NNE,28,4.0,4.0,89,0.00,,,0.01,Wunderground v.1.15,2013-03-02 01:50:00,
2013-03-01 20:55:00,31.8,28.9,29.75,NNE,16,3.0,8.0,89,0.00,,,0.01,Wunderground v.1.15,2013-03-02 01:55:00,
2013-03-01 21:05:00,31.6,28.5,29.75,NNE,21,3.0,8.0,88,0.00,,,0.01,Wunderground v.1.15,2013-03-02 02:05:00,
2013-03-01 21:10:00,31.6,28.5,29.75,NNE,23,4.0,8.0,88,0.00,,,0.01,Wunderground v.1.15,2013-03-02 02:10:00,
2013-03-01 21:15:00,31.6,28.2,29.75,NNE,27,4.0,8.0,87,0.00,,,0.01,Wunderground v.1.15,2013-03-02 02:15:00,
2013-03-01 21:20:00,31.6,28.2,29.75,ENE,71,4.0,10.0,87,0.00,,,0.01,Wunderground v.1.15,2013-03-02 02:20:00,
2013-03-01 21:30:00,31.4,28.0,29.75,NE,48,4.0,8.0,87,0.00,,,0.01,Wunderground v.1.15,2013-03-02 02:30:00,
2013-03-01 21:40:00,31.3,27.9,29.75,NE,40,2.0,8.0,87,0.00,,,0.01,Wunderground v.1.15,2013-03-02 02:40:00,
2013-03-01 21:45:00,31.2,27.8,29.76,North,355,3.0,8.0,87,0.00,,,0.01,Wunderground v.1.15,2013-03-02 02:45:00,
2013-03-01 21:50:00,31.1,27.7,29.75,NNE,13,5.0,5.0,87,0.00,,,0.01,Wunderground v.1.15,2013-03-02 02:50:00,
2013-03-01 21:55:00,31.1,27.7,29.76,NNE,13,4.0,8.0,87,0.00,,,0.01,Wunderground v.1.15,2013-03-02 02:55:00,
2013-03-01 22:00:00,31.0,27.6,29.76,NE,36,3.0,3.0,87,0.00,,,0.01,Wunderground v.1.15,2013-03-02 03:00:00,
2013-03-01 22:05:00,31.0,27.6,29.76,NNE,20,3.0,8.0,87,0.00,,,0.01,Wunderground v.1.15,2013-03-02 03:05:00,
2013-03-01 22:10:00,30.9,27.2,29.76,NE,35,3.0,8.0,86,0.00,,,0.01,Wunderground v.1.15,2013-03-02 03:10:00,
2013-03-01 22:20:00,30.9,27.2,29.76,NE,36,3.0,3.0,86,0.00,,,0.01,Wunderground v.1.15,2013-03-02 03:20:00,
2013-03-01 22:25:00,30.8,27.1,29.76,North,355,2.0,4.0,86,0.00,,,0.01,Wunderground v.1.15,2013-03-02 03:25:00,
2013-03-01 22:30:00,30.8,27.1,29.76,NNE,29,2.0,2.0,86,0.00,,,0.01,Wunderground v.1.15,2013-03-02 03:30:00,
2013-03-01 22:35:00,30.8,27.1,29.76,North,355,1.0,8.0,86,0.00,,,0.01,Wunderground v.1.15,2013-03-02 03:35:00,
2013-03-01 22:40:00,30.8,27.1,29.76,NNE,19,2.0,8.0,86,0.00,,,0.01,Wunderground v.1.15,2013-03-02 03:40:00,
2013-03-01 22:45:00,30.7,27.0,29.76,NNE,24,2.0,8.0,86,0.00,,,0.01,Wunderground v.1.15,2013-03-02 03:45:00,
2013-03-01 22:50:00,30.7,26.7,29.76,NNE,30,2.0,8.0,85,0.00,,,0.01,Wunderground v.1.15,2013-03-02 03:50:00,
2013-03-01 22:55:00,30.6,26.9,29.76,NNW,348,2.0,8.0,86,0.00,,,0.01,Wunderground v.1.15,2013-03-02 03:55:00,
2013-03-01 23:05:00,30.6,26.6,29.76,North,355,1.0,8.0,85,0.00,,,0.01,Wunderground v.1.15,2013-03-02 04:05:00,
2013-03-01 23:10:00,30.6,26.6,29.76,NNE,30,2.0,2.0,85,0.00,,,0.01,Wunderground v.1.15,2013-03-02 04:10:00,
2013-03-01 23:20:00,30.5,26.2,29.76,North,9,2.0,2.0,84,0.00,,,0.01,Wunderground v.1.15,2013-03-02 04:20:00,
2013-03-01 23:25:00,30.4,26.4,29.76,NE,43,1.0,8.0,85,0.00,,,0.01,Wunderground v.1.15,2013-03-02 04:25:00,
2013-03-01 23:30:00,30.4,26.1,29.76,NNE,19,1.0,1.0,84,0.00,,,0.01,Wunderground v.1.15,2013-03-02 04:30:00,
2013-03-01 23:35:00,30.3,26.0,29.76,NNE,29,2.0,2.0,84,0.00,,,0.01,Wunderground v.1.15,2013-03-02 04:35:00,
2013-03-01 23:40:00,30.3,26.0,29.76,NNE,13,2.0,2.0,84,0.00,,,0.01,Wunderground v.1.15,2013-03-02 04:40:00,
2013-03-01 23:50:00,30.3,25.8,29.76,North,360,2.0,8.0,83,0.00,,,0.01,Wunderground v.1.15,2013-03-02 04:50:00,